This is the latest recevied weather packets stored in our database for station/object IU1DOF-3. If no packets are shown the sender has not sent any weather packets the latest 10 day(s).
| Time | Temp. | Humidity | Pressure | Rain* | Wind** | Luminosity | Snow |
|---|---|---|---|---|---|---|---|
| 1777882541 | 13.33° C | 80% | 1016.1 hPa | 0 mm | - | - | - |
| 1777881918 | 13.33° C | 81% | 1016.3 hPa | 0 mm | - | - | - |
| 1777881293 | 12.22° C | 87% | 1016.1 hPa | 0 mm | - | - | - |
| 1777880681 | 13.33° C | 85% | 1016.2 hPa | 0 mm | - | - | - |
| 1777880061 | 12.78° C | 80% | 1015.8 hPa | 0 mm | - | - | - |
| 1777879437 | 12.22° C | 83% | 1015.7 hPa | 0 mm | - | - | - |
| 1777878821 | 12.78° C | 84% | 1015.6 hPa | 0 mm | - | - | - |
| 1777878205 | 12.22° C | 80% | 1015.9 hPa | 0 mm | - | - | - |
| 1777877581 | 12.22° C | 81% | 1015.6 hPa | 0 mm | - | - | - |
| 1777876961 | 11.67° C | 84% | 1015.4 hPa | 0 mm | - | - | - |
| 1777876350 | 11.11° C | 87% | 1015.4 hPa | 0 mm | - | - | - |
| 1777875741 | 11.11° C | 90% | 1015.5 hPa | 0 mm | - | - | - |
| 1777875117 | 10.56° C | 91% | 1015.3 hPa | 0 mm | - | - | - |
| 1777874493 | 10.56° C | 89% | 1015.6 hPa | 0 mm | - | - | - |
| 1777873885 | 10.56° C | 89% | 1015.4 hPa | 0 mm | - | - | - |
| 1777873277 | 10° C | 89% | 1015.3 hPa | 0 mm | - | - | - |
| 1777872669 | 10.56° C | 90% | 1015.4 hPa | 0 mm | - | - | - |
| 1777872061 | 10° C | 89% | 1015.5 hPa | 0 mm | - | - | - |
| 1777871441 | 10.56° C | 87% | 1015.3 hPa | 0 mm | - | - | - |
| 1777870830 | 10° C | 89% | 1015.4 hPa | 0 mm | - | - | - |
| 1777870221 | 10° C | 89% | 1015.2 hPa | 0 mm | - | - | - |
| 1777869598 | 10° C | 89% | 1015 hPa | 0 mm | - | - | - |
| 1777868989 | 10° C | 89% | 1015.3 hPa | 0 mm | - | - | - |
| 1777868381 | 10.56° C | 86% | 1015.1 hPa | 0 mm | - | - | - |
| 1777867773 | 10° C | 87% | 1015.1 hPa | 0 mm | - | - | - |
* Rain latest hour (hover to see other rain measurements)
** Current wind speed in m/s (hover to see current wind gust speed)